"Datum/tijd (MEZT)";"verwachting, vectrale stroom cm/s";"debiet verwachting rws (m3/s)"
2024-04-22 13:00;2;194.6
2024-04-22 13:10;2;202.6
2024-04-22 13:20;2;207
2024-04-22 13:30;2;207.3
2024-04-22 13:40;2;203.5
2024-04-22 13:50;2;196.1
2024-04-22 14:00;2;198.3
2024-04-22 14:10;2;197.5
2024-04-22 14:20;2;194.2
2024-04-22 14:30;2;190.8
2024-04-22 14:40;2;184.6
2024-04-22 14:50;2;179.6
2024-04-22 15:00;2;184.8
2024-04-22 15:10;3;235.5
2024-04-22 15:20;4;377.1
2024-04-22 15:30;7;637.2
2024-04-22 15:40;11;992.2
2024-04-22 15:50;15;1391.5
2024-04-22 16:00;19;1793
2024-04-22 16:10;23;2154.8
2024-04-22 16:20;26;2443.5
2024-04-22 16:30;29;2674.5
2024-04-22 16:40;31;2861.3
2024-04-22 16:50;32;3018.5
2024-04-22 17:00;34;3147.5
2024-04-22 17:10;35;3254.8
2024-04-22 17:20;36;3347.5
2024-04-22 17:30;36;3427.5
2024-04-22 17:40;37;3497.3
2024-04-22 17:50;38;3555.5
2024-04-22 18:00;38;3599.7
2024-04-22 18:10;38;3621.3
2024-04-22 18:20;38;3612.6
2024-04-22 18:30;37;3564.4
2024-04-22 18:40;36;3471.7
2024-04-22 18:50;35;3334.3
2024-04-22 19:00;33;3159.6
2024-04-22 19:10;31;2963.3
2024-04-22 19:20;29;2767.8
2024-04-22 19:30;27;2593.6
2024-04-22 19:40;25;2441.1
2024-04-22 19:50;24;2293.4
2024-04-22 20:00;23;2188.2
2024-04-22 20:10;21;2014.7
2024-04-22 20:20;19;1814.1
2024-04-22 20:30;17;1610.1
2024-04-22 20:40;15;1416
2024-04-22 20:50;13;1234.7
2024-04-22 21:00;11;1065.3
2024-04-22 21:10;9;901.5
2024-04-22 21:20;8;737.6
2024-04-22 21:30;6;576.8
2024-04-22 21:40;4;421.8
2024-04-22 21:50;3;276.4
2024-04-22 22:00;2;144.1
2024-04-22 22:10;0;30.3
2024-04-22 22:20;-1;-63.9
2024-04-22 22:30;-1;-138.3
2024-04-22 22:40;-2;-193.2
2024-04-22 22:50;-2;-228.2
2024-04-22 23:00;-2;-245.5
2024-04-22 23:10;-2;-244
2024-04-22 23:20;-2;-224.6
2024-04-22 23:30;-2;-189.6
2024-04-22 23:40;-1;-141.3
2024-04-22 23:50;-1;-81.9
2024-04-23 00:00;0;-15.3
2024-04-23 00:10;1;51.5
2024-04-23 00:20;1;116.6
2024-04-23 00:30;2;179.2
2024-04-23 00:40;3;236.1
2024-04-23 00:50;3;287.1
2024-04-23 01:00;4;332.7
2024-04-23 01:10;4;369.3
2024-04-23 01:20;4;396.3
2024-04-23 01:30;5;412.2
2024-04-23 01:40;5;418.3
2024-04-23 01:50;5;417.8
2024-04-23 02:00;5;411.3
2024-04-23 02:10;4;398.9
2024-04-23 02:20;4;381.5
2024-04-23 02:30;4;361.5
2024-04-23 02:40;4;340.5
2024-04-23 02:50;4;318.3
2024-04-23 03:00;3;292.4
2024-04-23 03:10;3;256.9
2024-04-23 03:20;2;210
2024-04-23 03:30;2;172.6
2024-04-23 03:40;2;190.1
2024-04-23 03:50;3;317.8
2024-04-23 04:00;6;578.4
2024-04-23 04:10;10;922.8
2024-04-23 04:20;14;1305.1
2024-04-23 04:30;18;1681.5
2024-04-23 04:40;22;1998.2
2024-04-23 04:50;24;2254.8
2024-04-23 05:00;27;2474.1
2024-04-23 05:10;28;2661
2024-04-23 05:20;30;2823.3
2024-04-23 05:30;32;2960.1
2024-04-23 05:40;33;3069.3
2024-04-23 05:50;33;3155.7
2024-04-23 06:00;34;3223.8
2024-04-23 06:10;35;3276.2
2024-04-23 06:20;35;3311
2024-04-23 06:30;35;3322.7
2024-04-23 06:40;35;3305.2
2024-04-23 06:50;34;3253.1
2024-04-23 07:00;33;3163.3
2024-04-23 07:10;32;3040.1
2024-04-23 07:20;30;2895.8
2024-04-23 07:30;29;2745.2
2024-04-23 07:40;27;2592.4
2024-04-23 07:50;25;2429.5
2024-04-23 08:00;25;2408.1
2024-04-23 08:10;23;2243.9
2024-04-23 08:20;22;2050.5
2024-04-23 08:30;19;1839.3
2024-04-23 08:40;17;1630.9
2024-04-23 08:50;15;1429.8
2024-04-23 09:00;13;1246
2024-04-23 09:10;11;1078
2024-04-23 09:20;10;920.1
2024-04-23 09:30;8;773.4
2024-04-23 09:40;7;639.1
2024-04-23 09:50;6;517.7
2024-04-23 10:00;4;409.2
2024-04-23 10:10;3;315
2024-04-23 10:20;3;235.3
2024-04-23 10:30;2;170.7
2024-04-23 10:40;1;121.7
2024-04-23 10:50;1;89.3
2024-04-23 11:00;1;73.7
2024-04-23 11:10;1;74.2
2024-04-23 11:20;1;89
2024-04-23 11:30;1;115.6
2024-04-23 11:40;2;151.4
2024-04-23 11:50;2;194.6
2024-04-23 12:00;3;243.3
2024-04-23 12:10;3;295.4
2024-04-23 12:20;4;348.7
2024-04-23 12:30;4;400.9
2024-04-23 12:40;5;450.6
2024-04-23 12:50;6;496.8
2024-04-23 13:00;7;596.8
2024-04-23 13:10;7;628.4
2024-04-23 13:20;7;655
2024-04-23 13:30;8;677
2024-04-23 13:40;8;693.2
2024-04-23 13:50;8;702.3
2024-04-23 14:00;8;702.2
2024-04-23 14:10;8;691.8
2024-04-23 14:20;8;669.9
2024-04-23 14:30;7;636.4
2024-04-23 14:40;7;591.7
2024-04-23 14:50;6;537.4
2024-04-23 15:00;5;472.9
2024-04-23 15:10;4;397.9
2024-04-23 15:20;4;317.2
2024-04-23 15:30;3;259.1
2024-04-23 15:40;3;292.3
2024-04-23 15:50;5;472.1
2024-04-23 16:00;9;784.2
2024-04-23 16:10;13;1171.2
2024-04-23 16:20;17;1585.8
2024-04-23 16:30;22;1979.4
2024-04-23 16:40;25;2312.8
2024-04-23 16:50;28;2597.3
2024-04-23 17:00;31;2844
2024-04-23 17:10;33;3053.3
2024-04-23 17:20;35;3234
2024-04-23 17:30;36;3383.7
2024-04-23 17:40;37;3505.2
2024-04-23 17:50;38;3603.8
2024-04-23 18:00;39;3682.2
2024-04-23 18:10;40;3743.5
2024-04-23 18:20;40;3786.6
2024-04-23 18:30;40;3807.9
2024-04-23 18:40;40;3804.8
2024-04-23 18:50;40;3771.9
2024-04-23 19:00;39;3704.7
2024-04-23 19:10;38;3601.8
2024-04-23 19:20;36;3465.2
2024-04-23 19:30;34;3298.2
2024-04-23 19:40;32;3111.1
2024-04-23 19:50;30;2917.5
2024-04-23 20:00;29;2831.2
2024-04-23 20:10;28;2672.1
2024-04-23 20:20;26;2546.2
2024-04-23 20:30;25;2461.8
2024-04-23 20:40;25;2395.6
2024-04-23 20:50;24;2328.5
2024-04-23 21:00;23;2242.2
2024-04-23 21:10;22;2129.8
2024-04-23 21:20;21;1997.3
2024-04-23 21:30;19;1858.6
2024-04-23 21:40;18;1723.3
2024-04-23 21:50;17;1587.9
2024-04-23 22:00;15;1456.3
2024-04-23 22:10;14;1324.5
2024-04-23 22:20;13;1193.2
2024-04-23 22:30;11;1068.2
2024-04-23 22:40;10;952.3
2024-04-23 22:50;9;850.1
2024-04-23 23:00;8;759.4
2024-04-23 23:10;7;684.7
2024-04-23 23:20;7;623
2024-04-23 23:30;6;570.1
2024-04-23 23:40;6;527.5
2024-04-23 23:50;5;494.9
2024-04-24 00:00;5;425.4
2024-04-24 00:10;4;390.5
2024-04-24 00:20;4;393.1
2024-04-24 00:30;4;415
2024-04-24 00:40;5;441.5
2024-04-24 00:50;5;475.1
2024-04-24 01:00;6;524.6
2024-04-24 01:10;6;588.3
2024-04-24 01:20;7;656.2
2024-04-24 01:30;8;716.4
2024-04-24 01:40;8;762.1
2024-04-24 01:50;9;792.6
2024-04-24 02:00;9;807.1
2024-04-24 02:10;9;809.5
2024-04-24 02:20;9;803.8
2024-04-24 02:30;9;794.6
2024-04-24 02:40;9;783.9
2024-04-24 02:50;8;770.2
2024-04-24 03:00;8;751.4
2024-04-24 03:10;8;721.6
2024-04-24 03:20;7;683.9
2024-04-24 03:30;7;652.5
2024-04-24 03:40;7;656.6
2024-04-24 03:50;8;735.5
2024-04-24 04:00;10;904.5
2024-04-24 04:10;12;1166.2
2024-04-24 04:20;16;1473.8
2024-04-24 04:30;19;1789.3
2024-04-24 04:40;22;2090.1
2024-04-24 04:50;25;2367.9
2024-04-24 05:00;28;2627.9
2024-04-24 05:10;30;2855
2024-04-24 05:20;32;3056.3
2024-04-24 05:30;34;3233.6
2024-04-24 05:40;35;3385
2024-04-24 05:50;36;3510.2
2024-04-24 06:00;37;3606.1
2024-04-24 06:10;38;3674.2
2024-04-24 06:20;38;3716.7
2024-04-24 06:30;38;3733.1
2024-04-24 06:40;38;3723.9
2024-04-24 06:50;38;3689.1
2024-04-24 07:00;37;3629.6
2024-04-24 07:10;36;3541
2024-04-24 07:20;35;3419.4
2024-04-24 07:30;33;3265.9
2024-04-24 07:40;31;3085.5
2024-04-24 07:50;29;2885.9
2024-04-24 08:00;27;2682.4
2024-04-24 08:10;25;2498.5
2024-04-24 08:20;24;2359
2024-04-24 08:30;23;2265.9
2024-04-24 08:40;22;2200.2
2024-04-24 08:50;21;2130.8
2024-04-24 09:00;20;1994.1
2024-04-24 09:10;19;1838.2
2024-04-24 09:20;18;1741.8
2024-04-24 09:30;17;1635
2024-04-24 09:40;15;1496.5
2024-04-24 09:50;14;1331.2
2024-04-24 10:00;12;1148.1
2024-04-24 10:10;10;944.1
2024-04-24 10:20;7;720
2024-04-24 10:30;5;490.3
2024-04-24 10:40;3;274
2024-04-24 10:50;1;85.8
2024-04-24 11:00;-1;-60.9
2024-04-24 11:10;-2;-169.1
2024-04-24 11:20;-2;-238.5
2024-04-24 11:30;-3;-274.9
2024-04-24 11:40;-3;-279
2024-04-24 11:50;-3;-256.2
2024-04-24 12:00;-2;-212.9
2024-04-24 12:10;-2;-153.3
2024-04-24 12:20;-1;-81.5
2024-04-24 12:30;0;-4.2
2024-04-24 12:40;1;73.7
2024-04-24 12:50;2;157.1
2024-04-24 13:00;3;239.7
2024-04-24 13:10;3;320.1
2024-04-24 13:20;4;396.7
2024-04-24 13:30;5;466.8
2024-04-24 13:40;6;527.9
2024-04-24 13:50;6;578.1
2024-04-24 14:00;6;615.7
2024-04-24 14:10;7;639.5
2024-04-24 14:20;7;649.2
2024-04-24 14:30;7;645.8
2024-04-24 14:40;7;631.5
2024-04-24 14:50;6;608.6
2024-04-24 15:00;6;579.5
2024-04-24 15:10;6;546.9
2024-04-24 15:20;5;511.6
2024-04-24 15:30;5;472.1
2024-04-24 15:40;5;424.8
2024-04-24 15:50;4;366.9
2024-04-24 16:00;3;314.5
2024-04-24 16:10;3;302.8
2024-04-24 16:20;4;379.3
2024-04-24 16:30;6;587.7
2024-04-24 16:40;9;903.3
2024-04-24 16:50;13;1280
2024-04-24 17:00;17;1678.5
2024-04-24 17:10;21;2042
2024-04-24 17:20;24;2348.6
2024-04-24 17:30;27;2605.4
2024-04-24 17:40;29;2820.8
2024-04-24 17:50;31;2998.7
2024-04-24 18:00;32;3145.9
2024-04-24 18:10;33;3269.2
2024-04-24 18:20;34;3370.5
2024-04-24 18:30;35;3447.1
2024-04-24 18:40;35;3503.3
2024-04-24 18:50;36;3542.6
2024-04-24 19:00;36;3566.7
2024-04-24 19:10;36;3571.7
2024-04-24 19:20;36;3551.3
2024-04-24 19:30;35;3495.9
2024-04-24 19:40;34;3398.5
2024-04-24 19:50;33;3257.6
2024-04-24 20:00;31;3079.1
2024-04-24 20:10;29;2877.8
2024-04-24 20:20;27;2676.8
2024-04-24 20:30;25;2501.1
2024-04-24 20:40;23;2352.8
2024-04-24 20:50;22;2213.4
2024-04-24 21:00;21;2058.8
2024-04-24 21:10;19;1876.7
2024-04-24 21:20;17;1672.7
2024-04-24 21:30;15;1470.1
2024-04-24 21:40;13;1280.8
2024-04-24 21:50;11;1109.9
2024-04-24 22:00;10;957.8
2024-04-24 22:10;8;813.6
2024-04-24 22:20;7;671.4
2024-04-24 22:30;5;533.6
2024-04-24 22:40;4;401.7
2024-04-24 22:50;3;277.6
2024-04-24 23:00;2;163.9
2024-04-24 23:10;1;64.3
2024-04-24 23:20;0;-17.2
2024-04-24 23:30;-1;-82.9
2024-04-24 23:40;-1;-129.8
2024-04-24 23:50;-2;-159.8
2024-04-25 00:00;-2;-172.6
2024-04-25 00:10;-2;-168.7
2024-04-25 00:20;-1;-148.2
2024-04-25 00:30;-1;-112.5
2024-04-25 00:40;-1;-64.6
2024-04-25 00:50;0;-7.8
2024-04-25 01:00;1;54.4
2024-04-25 01:10;1;120.7
2024-04-25 01:20;2;187
2024-04-25 01:30;3;250
2024-04-25 01:40;3;307.8
2024-04-25 01:50;4;358.8
2024-04-25 02:00;4;401.5
2024-04-25 02:10;5;434.9
2024-04-25 02:20;5;458.1
2024-04-25 02:30;5;470.9
2024-04-25 02:40;5;474.3
2024-04-25 02:50;5;470.2
2024-04-25 03:00;5;460.7
2024-04-25 03:10;5;446.6
2024-04-25 03:20;5;429.4
2024-04-25 03:30;4;409.1
2024-04-25 03:40;4;385.2
2024-04-25 03:50;4;356
2024-04-25 04:00;3;317.4
2024-04-25 04:10;3;264.2
2024-04-25 04:20;2;194.6
2024-04-25 04:30;1;124.8
2024-04-25 04:40;1;105.5
2024-04-25 04:50;2;194.3
2024-04-25 05:00;4;423.4
2024-04-25 05:10;8;770.9
2024-04-25 05:20;12;1168.1
2024-04-25 05:30;17;1583.3
2024-04-25 05:40;20;1960.3
2024-04-25 05:50;23;2262.3
2024-04-25 06:00;26;2498
2024-04-25 06:10;28;2686.1
2024-04-25 06:20;29;2833.3
2024-04-25 06:30;30;2946.9
2024-04-25 06:40;31;3034
2024-04-25 06:50;32;3096.4
2024-04-25 07:00;32;3143.7
2024-04-25 07:10;33;3183.1
2024-04-25 07:20;33;3216.1
2024-04-25 07:30;33;3235.8
2024-04-25 07:40;33;3231
2024-04-25 07:50;32;3190.2
2024-04-25 08:00;32;3107.9
2024-04-25 08:10;30;2987.6
2024-04-25 08:20;29;2844.8
2024-04-25 08:30;27;2700
2024-04-25 08:40;26;2561.6
2024-04-25 08:50;24;2415.1
2024-04-25 09:00;23;2241.1
2024-04-25 09:10;21;2031.9
2024-04-25 09:20;18;1800.1
2024-04-25 09:30;16;1571.9
2024-04-25 09:40;14;1356.8
2024-04-25 09:50;12;1168.1
2024-04-25 10:00;10;1002.2
2024-04-25 10:10;9;848.3
2024-04-25 10:20;7;704.3
2024-04-25 10:30;6;570
2024-04-25 10:40;5;445.4
2024-04-25 10:50;3;330.4
2024-04-25 11:00;2;227
2024-04-25 11:10;1;136.8
2024-04-25 11:20;1;61.8
2024-04-25 11:30;0;1.3
2024-04-25 11:40;0;-43.3
2024-04-25 11:50;-1;-68.8
2024-04-25 12:00;-1;-77
2024-04-25 12:10;-1;-70.4
2024-04-25 12:20;-1;-50.3
2024-04-25 12:30;0;-19.8
2024-04-25 12:40;0;16.7
2024-04-25 12:50;1;61
2024-04-25 13:00;1;106.5
2024-04-25 13:10;2;150.8
2024-04-25 13:20;2;194.6
2024-04-25 13:30;3;236.4
2024-04-25 13:40;3;276.1
2024-04-25 13:50;3;312.9
2024-04-25 14:00;4;347
2024-04-25 14:10;4;380.5
2024-04-25 14:20;4;413.3
2024-04-25 14:30;5;442.8
2024-04-25 14:40;5;466.4
2024-04-25 14:50;5;482.3
2024-04-25 15:00;5;488.6
2024-04-25 15:10;5;483.8
2024-04-25 15:20;5;467.9
2024-04-25 15:30;5;441.7
2024-04-25 15:40;4;406.8
2024-04-25 15:50;4;364.4
2024-04-25 16:00;3;313.7
2024-04-25 16:10;3;254.5
2024-04-25 16:20;2;187.1
2024-04-25 16:30;1;127
2024-04-25 16:40;1;119
2024-04-25 16:50;3;241.4
2024-04-25 17:00;6;521.2
2024-04-25 17:10;10;917.8
2024-04-25 17:20;15;1383.3
2024-04-25 17:30;20;1861.5
2024-04-25 17:40;24;2289.2
2024-04-25 17:50;28;2642.8
2024-04-25 18:00;31;2937.8
2024-04-25 18:10;34;3181.2
2024-04-25 18:20;36;3378.2
2024-04-25 18:30;37;3534
2024-04-25 18:40;38;3658.3
2024-04-25 18:50;39;3750.1
2024-04-25 19:00;40;3817.2
2024-04-25 19:10;40;3866.2
2024-04-25 19:20;40;3900.6
2024-04-25 19:30;41;3917.9
2024-04-25 19:40;40;3913.7
2024-04-25 19:50;40;3879
2024-04-25 20:00;39;3805.8
2024-04-25 20:10;38;3688.1
2024-04-25 20:20;36;3525.5
2024-04-25 20:30;34;3324.7
2024-04-25 20:40;32;3102.4
2024-04-25 20:50;29;2882.2
2024-04-25 21:00;27;2690.1
2024-04-25 21:10;26;2531.2
2024-04-25 21:20;24;2391.4
2024-04-25 21:30;23;2250.2
2024-04-25 21:40;21;2095
2024-04-25 21:50;20;1920.1
2024-04-25 22:00;18;1734.2
2024-04-25 22:10;16;1558.2
2024-04-25 22:20;14;1391.4
2024-04-25 22:30;13;1235.9
2024-04-25 22:40;11;1090.6
2024-04-25 22:50;10;948.8
2024-04-25 23:00;8;810.4
2024-04-25 23:10;7;679.1
2024-04-25 23:20;6;558
2024-04-25 23:30;5;449.4
2024-04-25 23:40;4;355.1
2024-04-25 23:50;3;276.7
2024-04-26 00:00;2;214.3
2024-04-26 00:10;2;167.4
2024-04-26 00:20;1;135.5
2024-04-26 00:30;1;118.2
2024-04-26 00:40;1;114.8
2024-04-26 00:50;1;125
2024-04-26 01:00;2;147.9
2024-04-26 01:10;2;181.7
2024-04-26 01:20;2;223.8
2024-04-26 01:30;3;271.3
2024-04-26 01:40;3;321.2
2024-04-26 01:50;4;371.6
2024-04-26 02:00;5;421
2024-04-26 02:10;5;468
2024-04-26 02:20;5;511.8
2024-04-26 02:30;6;550.2
2024-04-26 02:40;6;581
2024-04-26 02:50;6;601.8
2024-04-26 03:00;7;611.1
2024-04-26 03:10;7;609.5
2024-04-26 03:20;6;599.1
2024-04-26 03:30;6;582.2
2024-04-26 03:40;6;560.2
2024-04-26 03:50;6;534.1
2024-04-26 04:00;5;503
2024-04-26 04:10;5;463.9
2024-04-26 04:20;4;412
2024-04-26 04:30;4;347
2024-04-26 04:40;3;289.5
2024-04-26 04:50;3;285.3
2024-04-26 05:00;4;395.7
2024-04-26 05:10;7;642.4
2024-04-26 05:20;11;990.5
2024-04-26 05:30;15;1395
2024-04-26 05:40;19;1809.8
2024-04-26 05:50;23;2181.6
2024-04-26 06:00;26;2492.4
2024-04-26 06:10;29;2755.4
2024-04-26 06:20;31;2977.2
2024-04-26 06:30;33;3158.7
2024-04-26 06:40;34;3304.5
2024-04-26 06:50;35;3416
2024-04-26 07:00;36;3496.2
2024-04-26 07:10;37;3550.6
2024-04-26 07:20;37;3584.2
2024-04-26 07:30;37;3601.4
2024-04-26 07:40;37;3602.8
2024-04-26 07:50;37;3587.3
2024-04-26 08:00;36;3547.6
2024-04-26 08:10;36;3475.8
2024-04-26 08:20;34;3366.1
2024-04-26 08:30;33;3216.7
2024-04-26 08:40;31;3030.5
2024-04-26 08:50;29;2821.5
2024-04-26 09:00;27;2618.8
2024-04-26 09:10;25;2448.3
2024-04-26 09:20;23;2316.1
2024-04-26 09:30;22;2197.8
2024-04-26 09:40;21;2062.7
2024-04-26 09:50;19;1896
2024-04-26 10:00;17;1706.5
2024-04-26 10:10;16;1525.2
2024-04-26 10:20;14;1358.5
2024-04-26 10:30;12;1213.2
2024-04-26 10:40;11;1082.5
2024-04-26 10:50;10;953.5
2024-04-26 11:00;9;824.4
2024-04-26 11:10;7;698.6
2024-04-26 11:20;6;578.6
2024-04-26 11:30;5;466.2
2024-04-26 11:40;4;365.3
2024-04-26 11:50;3;279
2024-04-26 12:00;2;210
2024-04-26 12:10;2;159.6
2024-04-26 12:20;1;127.7
2024-04-26 12:30;1;113.1
2024-04-26 12:40;1;114.3
2024-04-26 12:50;1;129.3
2024-04-26 13:00;2;155.9
2024-04-26 13:10;2;191.6
2024-04-26 13:20;2;234.1
2024-04-26 13:30;3;280.8
2024-04-26 13:40;4;329.1
2024-04-26 13:50;4;376.7
2024-04-26 14:00;5;422.2
2024-04-26 14:10;5;465.1
2024-04-26 14:20;5;506
2024-04-26 14:30;6;545
2024-04-26 14:40;6;582
2024-04-26 14:50;7;615.6
2024-04-26 15:00;7;644.1
2024-04-26 15:10;7;665.1
2024-04-26 15:20;7;676.4
2024-04-26 15:30;7;677.4
2024-04-26 15:40;7;667.8
2024-04-26 15:50;7;648.1
2024-04-26 16:00;7;619
2024-04-26 16:10;6;581.9
2024-04-26 16:20;6;537.8
2024-04-26 16:30;5;486.1
2024-04-26 16:40;5;423.4
2024-04-26 16:50;4;348.2
2024-04-26 17:00;3;275.1
2024-04-26 17:10;3;241.8
2024-04-26 17:20;3;314.3
2024-04-26 17:30;6;530
2024-04-26 17:40;9;868.6
2024-04-26 17:50;14;1274.9
2024-04-26 18:00;18;1708.5
2024-04-26 18:10;22;2105.1
2024-04-26 18:20;26;2438.2
2024-04-26 18:30;29;2717.1
2024-04-26 18:40;31;2951.6
2024-04-26 18:50;33;3143.3
2024-04-26 19:00;35;3294.5
2024-04-26 19:10;36;3409.9
2024-04-26 19:20;36;3491
2024-04-26 19:30;37;3544.8
2024-04-26 19:40;37;3580.6
2024-04-26 19:50;37;3600.2
2024-04-26 20:00;37;3604.9
2024-04-26 20:10;37;3590.6
2024-04-26 20:20;37;3550.6
2024-04-26 20:30;36;3478.6
2024-04-26 20:40;35;3368.7
2024-04-26 20:50;33;3220.5
2024-04-26 21:00;31;3041.5
2024-04-26 21:10;29;2852.3
2024-04-26 21:20;27;2676.6
2024-04-26 21:30;26;2524.2
2024-04-26 21:40;24;2385.8
2024-04-26 21:50;23;2239.4
2024-04-26 22:00;21;2069.9
2024-04-26 22:10;19;1878.1
2024-04-26 22:20;17;1681.4
2024-04-26 22:30;15;1497.2
2024-04-26 22:40;14;1329.6
2024-04-26 22:50;12;1182.3
2024-04-26 23:00;11;1045.9
2024-04-26 23:10;10;912.3
2024-04-26 23:20;8;782.2
2024-04-26 23:30;7;657.5
2024-04-26 23:40;6;540.2
2024-04-26 23:50;5;431.5
2024-04-27 00:00;4;334
2024-04-27 00:10;3;250.6
2024-04-27 00:20;2;183.7
2024-04-27 00:30;1;134.2
2024-04-27 00:40;1;102.6
2024-04-27 00:50;1;88
2024-04-27 01:00;1;89.1
2024-04-27 01:10;1;104.2
2024-04-27 01:20;1;131.1
2024-04-27 01:30;2;166.9
2024-04-27 01:40;2;209.3
2024-04-27 01:50;3;255.6
2024-04-27 02:00;3;303.6
2024-04-27 02:10;4;350.7
2024-04-27 02:20;4;395.2
2024-04-27 02:30;5;436.3
2024-04-27 02:40;5;474.1
2024-04-27 02:50;6;508.6
2024-04-27 03:00;6;539.5
2024-04-27 03:10;6;566.4
2024-04-27 03:20;6;588.9
2024-04-27 03:30;7;606.1
2024-04-27 03:40;7;616.4
2024-04-27 03:50;7;618.7
2024-04-27 04:00;7;611.5
2024-04-27 04:10;7;593.6
2024-04-27 04:20;6;564.8
2024-04-27 04:30;6;525.6
2024-04-27 04:40;5;476
2024-04-27 04:50;5;412.5
2024-04-27 05:00;4;328.3
2024-04-27 05:10;2;224.1
2024-04-27 05:20;1;130.1
2024-04-27 05:30;1;118.7
2024-04-27 05:40;3;268.6
2024-04-27 05:50;6;581.6
2024-04-27 06:00;11;988
2024-04-27 06:10;16;1437.5
2024-04-27 06:20;20;1871.3
2024-04-27 06:30;24;2242.3
2024-04-27 06:40;27;2546.9
2024-04-27 06:50;30;2803.3
2024-04-27 07:00;32;3015
2024-04-27 07:10;34;3181.9
2024-04-27 07:20;35;3313.2
2024-04-27 07:30;36;3407.1
2024-04-27 07:40;37;3474.6
2024-04-27 07:50;37;3522.6
2024-04-27 08:00;37;3557.1
2024-04-27 08:10;38;3579.6
2024-04-27 08:20;38;3586.1
2024-04-27 08:30;37;3569.6
2024-04-27 08:40;37;3521.5
2024-04-27 08:50;36;3433.1
2024-04-27 09:00;34;3298.5
2024-04-27 09:10;32;3120.2
2024-04-27 09:20;30;2910.8
2024-04-27 09:30;28;2693.8
2024-04-27 09:40;26;2496.2
2024-04-27 09:50;24;2326.7
2024-04-27 10:00;23;2177.3
2024-04-27 10:10;21;2025.4
2024-04-27 10:20;19;1854.2
2024-04-27 10:30;17;1662.3
2024-04-27 10:40;15;1475.5
2024-04-27 10:50;14;1299
2024-04-27 11:00;12;1139.4
2024-04-27 11:10;10;995.7
2024-04-27 11:20;9;857.6
2024-04-27 11:30;8;721.8
2024-04-27 11:40;6;591.9
2024-04-27 11:50;5;469.5
2024-04-27 12:00;4;356.7
2024-04-27 12:10;3;256.2
2024-04-27 12:20;2;170.9
2024-04-27 12:30;1;103.3
2024-04-27 12:40;1;54
2024-04-27 12:50;0;22.3
2024-04-27 13:00;0;6.6
2024-04-27 13:10;0;4.7
2024-04-27 13:20;0;15.2
2024-04-27 13:30;0;36.9
2024-04-27 13:40;1;68.6
2024-04-27 13:50;1;108.8
2024-04-27 14:00;2;155.5
2024-04-27 14:10;2;205.9
2024-04-27 14:20;3;257.6
2024-04-27 14:30;3;308.2
2024-04-27 14:40;4;356.1
2024-04-27 14:50;4;400.5
2024-04-27 15:00;5;441.1
2024-04-27 15:10;5;477.8
2024-04-27 15:20;6;511.1
2024-04-27 15:30;6;540.3
2024-04-27 15:40;6;564.9
2024-04-27 15:50;6;583.5
2024-04-27 16:00;7;594.8
2024-04-27 16:10;7;597.4
2024-04-27 16:20;7;590.3
2024-04-27 16:30;6;573.2
2024-04-27 16:40;6;546.4
2024-04-27 16:50;6;510.7
2024-04-27 17:00;5;466.2
2024-04-27 17:10;5;410.9
2024-04-27 17:20;4;344.8
2024-04-27 17:30;3;281.2
2024-04-27 17:40;3;255.4
2024-04-27 17:50;4;326.9
2024-04-27 18:00;6;531.8
2024-04-27 18:10;9;854.3
2024-04-27 18:20;14;1241.2
2024-04-27 18:30;18;1656.6
2024-04-27 18:40;22;2035.6
2024-04-27 18:50;25;2352.5
2024-04-27 19:00;28;2618.1
2024-04-27 19:10;31;2843.2
2024-04-27 19:20;32;3024.9
2024-04-27 19:30;34;3175
2024-04-27 19:40;35;3292.6
2024-04-27 19:50;36;3379.7
2024-04-27 20:00;36;3442.5
2024-04-27 20:10;37;3486.2
2024-04-27 20:20;37;3514.7
2024-04-27 20:30;37;3528.6
2024-04-27 20:40;37;3523.9
2024-04-27 20:50;37;3495
2024-04-27 21:00;36;3435.8
2024-04-27 21:10;35;3340.1
2024-04-27 21:20;33;3204.2
2024-04-27 21:30;32;3031.7
2024-04-27 21:40;29;2833.7
2024-04-27 21:50;27;2632.4
2024-04-27 22:00;25;2452.3
2024-04-27 22:10;24;2299.7
2024-04-27 22:20;22;2160.6
2024-04-27 22:30;21;2015.1
2024-04-27 22:40;19;1849.8
2024-04-27 22:50;17;1665.4
2024-04-27 23:00;16;1486.8
2024-04-27 23:10;14;1319.3
2024-04-27 23:20;12;1166.7
2024-04-27 23:30;11;1027.3
2024-04-27 23:40;9;891.6
2024-04-27 23:50;8;756.7
2024-04-28 00:00;7;625.7
2024-04-28 00:10;5;500.9
2024-04-28 00:20;4;384.3
2024-04-28 00:30;3;279
2024-04-28 00:40;2;188
2024-04-28 00:50;1;114
2024-04-28 01:00;1;58.2
2024-04-28 01:10;0;20.4
2024-04-28 01:20;0;-0.7
2024-04-28 01:30;0;-6
2024-04-28 01:40;0;2.7
2024-04-28 01:50;0;23.4
2024-04-28 02:00;1;55.3
2024-04-28 02:10;1;94.6
2024-04-28 02:20;2;139.1
2024-04-28 02:30;2;186
2024-04-28 02:40;3;232.7
2024-04-28 02:50;3;277.5
2024-04-28 03:00;4;319.4
2024-04-28 03:10;4;358.1
2024-04-28 03:20;4;393.1
2024-04-28 03:30;5;424.4
2024-04-28 03:40;5;451.1
2024-04-28 03:50;5;473.3
2024-04-28 04:00;5;489.8
2024-04-28 04:10;6;498.8
2024-04-28 04:20;6;498.7
2024-04-28 04:30;5;489.1
2024-04-28 04:40;5;470.8
2024-04-28 04:50;5;445.1
2024-04-28 05:00;5;412
2024-04-28 05:10;4;370.1
2024-04-28 05:20;4;316
2024-04-28 05:30;3;250
2024-04-28 05:40;2;186.6
2024-04-28 05:50;2;164.3
2024-04-28 06:00;3;246.8
2024-04-28 06:10;5;464.9
2024-04-28 06:20;9;799.7
2024-04-28 06:30;13;1196
2024-04-28 06:40;18;1620.6
2024-04-28 06:50;22;2009.4
2024-04-28 07:00;25;2337.2
2024-04-28 07:10;28;2615.9
2024-04-28 07:20;31;2853.3
2024-04-28 07:30;33;3045.9
2024-04-28 07:40;34;3205.7
2024-04-28 07:50;36;3332.1
2024-04-28 08:00;36;3425.2
2024-04-28 08:10;37;3491.6
2024-04-28 08:20;37;3536.2
2024-04-28 08:30;38;3563.4
2024-04-28 08:40;38;3575.1
2024-04-28 08:50;38;3568.8
2024-04-28 09:00;37;3539.1
2024-04-28 09:10;37;3480.2
2024-04-28 09:20;35;3386.5
2024-04-28 09:30;34;3253.6
2024-04-28 09:40;32;3080.4
2024-04-28 09:50;30;2872.2
2024-04-28 10:00;27;2643.5
2024-04-28 10:10;25;2414
2024-04-28 10:20;23;2206
2024-04-28 10:30;21;2023.8
2024-04-28 10:40;19;1858.4
2024-04-28 10:50;18;1693.8
2024-04-28 11:00;16;1518.6
2024-04-28 11:10;14;1328.9
2024-04-28 11:20;12;1146.9
2024-04-28 11:30;10;975.7
2024-04-28 11:40;9;818
2024-04-28 11:50;7;671
2024-04-28 12:00;6;527.6
2024-04-28 12:10;4;387.3
2024-04-28 12:20;3;252.8
2024-04-28 12:30;1;126.8
2024-04-28 12:40;0;11.1
2024-04-28 12:50;-1;-93.9
2024-04-28 13:00;-2;-178.9
2024-04-28 13:10;-2;-245.5
2024-04-28 13:20;-3;-291.3
2024-04-28 13:30;-3;-318.3
2024-04-28 13:40;-3;-328.9
2024-04-28 13:50;-3;-324.9
2024-04-28 14:00;-3;-307.7
2024-04-28 14:10;-3;-277.6
2024-04-28 14:20;-2;-236.2
2024-04-28 14:30;-2;-185.7
2024-04-28 14:40;-1;-131
2024-04-28 14:50;-1;-73.7
2024-04-28 15:00;0;-15.6
2024-04-28 15:10;0;41.2
2024-04-28 15:20;1;96.4
2024-04-28 15:30;2;149.8
2024-04-28 15:40;2;197.1
2024-04-28 15:50;3;238.9
2024-04-28 16:00;3;274.7
2024-04-28 16:10;3;303
2024-04-28 16:20;4;322.7
2024-04-28 16:30;4;333.8
2024-04-28 16:40;4;336.5
2024-04-28 16:50;4;332.1
2024-04-28 17:00;4;322.2
2024-04-28 17:10;3;308.4
2024-04-28 17:20;3;291.3
2024-04-28 17:30;3;270.1
2024-04-28 17:40;3;242.2
2024-04-28 17:50;2;203.7